GW0901 Weather Reports


time (UTC)temp
C
wind
direction
speed
KPH
gust
KPH
rain 1hr
cm
rain 24hr
cm
rain mn
cm
humidity
%
barometer
mb
20260505221537 27 322 6.4 17.7 0.00 0.00 0.00 37 1009.2
20260505215142 -17 0 0.0 0.0 0.00 0.00 0.00 100
20260505124530 11 347 1.6 4.8 0.00 0.00 0.00 77 1008.8
20260505121532 15 187 0.0 1.6 0.00 0.00 0.00 64 1008.6
20260505114533 15 291 3.2 11.3 0.00 0.00 0.00 62 1008.4
20260505113032 16 268 3.2 12.9 0.00 0.00 0.00 61 1008.3
20260505111531 16 271 4.8 14.5 0.00 0.00 0.00 61 1008.2
20260505101531 16 261 4.8 17.7 0.00 0.00 0.00 60 1007.8
20260505100147 16 241 1.6 6.4 0.00 0.00 0.00 58 1007.8
20260505094530 17 244 3.2 14.5 0.00 0.00 0.00 58 1007.7
20260505091529 17 274 4.8 14.5 0.00 0.00 0.00 57 1007.5
20260505084535 17 264 4.8 14.5 0.00 0.00 0.00 57 1007.4
20260505083116 17 273 4.8 16.1 0.00 0.00 0.00 57 1007.4
20260505081530 17 261 4.8 12.9 0.00 0.00 0.00 57 1007.4
20260505080034 17 261 4.8 14.5 0.00 0.00 0.00 59 1007.4
20260505073031 17 243 3.2 14.5 0.00 0.00 0.00 59 1007.3
20260505071530 16 279 3.2 9.7 0.00 0.00 0.00 62 1007.2
20260505070030 16 275 0.0 8.0 0.00 0.00 0.00 61 1007.1
20260505064528 18 331 1.6 6.4 0.00 0.00 0.00 55 1007.0
20260505061539 19 236 4.8 12.9 0.00 0.00 0.00 52 1006.8
20260505060029 19 269 8.0 19.3 0.00 0.00 0.00 51 1006.6
20260505051531 20 261 8.0 24.1 0.00 0.00 0.00 48 1006.3
20260505041530 20 269 11.3 24.1 0.00 0.00 0.00 43 1005.8
20260505040044 21 266 11.3 29.0 0.00 0.00 0.00 43 1005.5
20260505034528 21 261 11.3 27.4 0.00 0.00 0.00 43 1005.4
20260505033032 21 263 11.3 27.4 0.00 0.00 0.00 42 1005.3
20260505031529 21 266 11.3 24.1 0.00 0.00 0.00 41 1005.2
20260505030032 22 266 12.9 25.7 0.00 0.00 0.00 41 1004.9
20260505024531 22 265 11.3 24.1 0.00 0.00 0.00 39 1004.9
20260505023044 23 271 9.7 20.9 0.00 0.00 0.00 38 1004.8
20260505021531 23 271 11.3 27.4 0.00 0.00 0.00 36 1004.8
20260505020033 24 271 9.7 22.5 0.00 0.00 0.00 34 1004.8
20260505014534 25 263 12.9 24.1 0.00 0.00 0.00 32 1004.8
20260505011608 26 265 8.0 19.3 0.00 0.00 0.00 30 1004.7
20260505010028 26 260 9.7 19.3 0.00 0.00 0.00 29 1004.7
20260505004530 27 256 9.7 30.6 0.00 0.00 0.00 28 1004.8
20260505003107 28 258 9.7 24.1 0.00 0.00 0.00 27 1004.8
20260505000029 28 289 6.4 19.3 0.00 0.00 0.00 30 1004.8
20260504233050 28 305 8.0 17.7 0.00 0.00 0.00 30 1004.8
20260504231530 28 317 9.7 20.9 0.00 0.00 0.00 29 1004.9
20260504230036 29 317 6.4 22.5 0.00 0.00 0.00 29 1005.0